Location: Deep Valley
(39.7548°N, 80.4695°W)
Time: 22:19:45
(UTC+00:00)

X-37B - Visible Passes

Search period start: 18 June 2021 00:00
Search period end: 28 June 2021 00:00
Orbit: 386 x 389 km, 45.0° (Epoch: 10 June)

Date Brightness Start Highest point End Pass type
(mag) Time Alt. Az. Time Alt. Az. Time Alt. Az.
18 Jun 2.3 06:57:24 30° NNW 06:57:42 31° N 07:00:35 10° ENE visible
18 Jun 2.1 08:31:46 10° WNW 08:34:46 38° NNE 08:37:47 10° E visible
19 Jun 3.5 06:01:26 15° NE 06:01:26 15° NE 06:02:11 10° ENE visible
19 Jun 2.4 07:33:43 12° NW 07:36:17 31° N 07:39:10 10° ENE visible
19 Jun 0.6 09:10:00 10° WNW 09:13:10 86° NNE 09:16:20 10° ESE visible
20 Jun 2.6 06:37:55 29° N 06:37:55 29° N 06:40:36 10° ENE visible
20 Jun 1.3 08:11:39 10° WNW 08:14:46 53° NNE 08:17:53 10° E visible
21 Jun 2.0 07:14:49 23° NW 07:16:19 38° NNE 07:19:19 10° E visible
21 Jun 0.7 08:49:56 10° WNW 08:53:02 52° SSW 08:56:07 10° SE visible
22 Jun 3.2 03:00:51 10° SW 03:01:06 12° SW 03:01:06 12° SW visible
22 Jun 3.5 06:20:14 13° ENE 06:20:14 13° ENE 06:20:43 10° ENE visible
22 Jun 0.5 07:52:39 20° WNW 07:54:42 87° NNE 07:57:52 10° ESE visible
23 Jun 1.3 02:02:51 10° SSW 02:05:42 31° SE 02:08:34 10° E visible
23 Jun 2.1 03:39:09 10° W 03:41:14 34° WNW 03:41:14 34° WNW visible
23 Jun 1.5 08:32:12 25° WSW 08:32:49 27° SW 08:35:34 10° SSE visible
24 Jun 0.6 02:40:40 10° WSW 02:43:51 79° NNW 02:47:02 10° ENE visible
24 Jun 2.9 04:17:52 10° WNW 04:19:34 23° NW 04:19:34 23° NW visible
25 Jun 0.6 01:42:22 10° SW 01:45:30 59° SSE 01:48:39 10° ENE visible
25 Jun 2.1 03:19:16 10° W 03:22:15 36° NNW 03:24:24 16° NE visible
25 Jun 3.7 04:56:27 10° WNW 04:56:41 12° WNW 04:56:41 12° WNW visible
26 Jun 1.5 02:20:41 10° W 02:23:47 49° NNW 02:26:54 10° ENE visible
26 Jun 2.5 03:57:58 10° WNW 04:00:50 29° N 04:01:00 29° N visible
27 Jun 0.8 01:22:12 10° WSW 01:25:22 78° NNW 01:28:34 10° ENE visible
27 Jun 2.5 02:59:25 10° WNW 03:02:18 31° N 03:05:06 11° ENE visible
27 Jun 3.3 04:36:22 10° WNW 04:37:22 18° NW 04:37:22 18° NW visible
